Hauptseite
METAR-TAF:

METAR-TAF

Flughäfen :

Shepherd Bay, Nunavut, Kanada

Breite: 68-49N, Länge: 093-26W, Höhe: 51 m

Beobachtung

Neuester Wetterbericht von vor 14 Minuten, um 12:00 UTC
Wind 7 kt aus Süd/Südost, variierte zwischen Südost und Süd/Südwest
Temperatur -38°C
Luftfeuchtigkeit 59%
Luftdruck 1013 hPa

METAR: CYUS 181200Z AUTO 15007KT 130V200 ////SM //// NCD M38/M43 A2992

Zeit: 05:14 (12:14 UTC)


TAF: fehlend

Wetterbeobachtungen und Prognosen von mehr als 4000 Flughäfen (METAR und TAF Bericht).

Die verfügbaren Stationen werden durch gelbe und rote Markierungen auf der Karte dargestellt.

Führen Sie die Maus auf sie, um den Namen der Station zu sehen.

Darauf klicken, um die Beobachtung von Wetterbeobachtungen und Prognosen zu sehen.

Um die Karte zu ändern : klicken Sie auf den grünen Tasten mit einem schwarzen Kreuz Zum Vergrößern, auf den grünen Button mit einem Gedankenstrich zu verkleinern, oder auf die grünen Pfeile für benachbarte Karten.


METAR-TAF: